TimeCDT,TemperatureF,Dew PointF,Humidity,Sea Level PressureIn,VisibilityMPH,Wind Direction,Wind SpeedMPH,Gust SpeedMPH,PrecipitationIn,Events,Conditions,WindDirDegrees,DateUTC
12:56 AM,59.0,54.0,83,30.15,10.0,Calm,Calm,-,N/A,,Clear,0,2013-05-15 05:56:00
1:56 AM,57.0,55.0,93,30.15,10.0,Calm,Calm,-,N/A,,Clear,0,2013-05-15 06:56:00
2:56 AM,55.0,52.0,89,30.14,10.0,WNW,3.5,-,N/A,,Clear,300,2013-05-15 07:56:00
3:56 AM,55.9,53.1,90,30.14,10.0,Calm,Calm,-,N/A,,Clear,0,2013-05-15 08:56:00
4:56 AM,54.0,51.1,90,30.16,10.0,SE,3.5,-,N/A,,Clear,140,2013-05-15 09:56:00
5:56 AM,55.9,54.0,93,30.17,10.0,Calm,Calm,-,N/A,,Clear,0,2013-05-15 10:56:00
6:56 AM,57.9,55.0,90,30.19,10.0,Calm,Calm,-,N/A,,Clear,0,2013-05-15 11:56:00
7:56 AM,66.9,61.0,81,30.19,10.0,Calm,Calm,-,N/A,,Clear,0,2013-05-15 12:56:00
8:56 AM,72.0,61.0,68,30.19,10.0,NW,4.6,-,N/A,,Clear,310,2013-05-15 13:56:00
9:08 AM,73.4,64.4,73,30.23,10.0,NNW,3.5,-,N/A,,Partly Cloudy,340,2013-05-15 14:08:00
9:16 AM,75.2,66.2,73,30.23,1.2,WNW,4.6,-,N/A,,Haze,300,2013-05-15 14:16:00
9:32 AM,75.2,60.8,61,30.23,10.0,WNW,3.5,-,N/A,,Clear,290,2013-05-15 14:32:00
9:56 AM,77.0,57.0,50,30.19,10.0,Variable,3.5,-,N/A,,Clear,0,2013-05-15 14:56:00
10:56 AM,80.1,54.0,40,30.18,10.0,Variable,3.5,-,N/A,,Clear,0,2013-05-15 15:56:00
11:56 AM,82.0,54.0,38,30.16,10.0,NNE,3.5,-,N/A,,Clear,20,2013-05-15 16:56:00
12:56 PM,84.0,54.0,35,30.14,10.0,Variable,5.8,-,N/A,,Partly Cloudy,0,2013-05-15 17:56:00
1:56 PM,84.0,52.0,33,30.11,10.0,SSE,6.9,-,N/A,,Clear,160,2013-05-15 18:56:00
2:56 PM,84.0,54.0,35,30.09,10.0,South,16.1,21.9,N/A,,Clear,190,2013-05-15 19:56:00
3:56 PM,81.0,50.0,34,30.07,10.0,South,17.3,-,N/A,,Clear,170,2013-05-15 20:56:00
4:56 PM,80.1,51.1,36,30.06,10.0,South,12.7,-,N/A,,Clear,170,2013-05-15 21:56:00
5:56 PM,77.0,50.0,39,30.05,10.0,South,11.5,-,N/A,,Clear,180,2013-05-15 22:56:00
6:56 PM,75.0,48.0,38,30.04,10.0,South,6.9,-,N/A,,Clear,190,2013-05-15 23:56:00
7:56 PM,72.0,51.1,48,30.04,10.0,SSW,3.5,-,N/A,,Clear,200,2013-05-16 00:56:00
8:56 PM,69.1,52.0,54,30.04,10.0,South,3.5,-,N/A,,Clear,180,2013-05-16 01:56:00
9:56 PM,68.0,54.0,61,30.04,10.0,SSE,3.5,-,N/A,,Clear,160,2013-05-16 02:56:00
10:56 PM,68.0,55.0,63,30.03,10.0,SSE,3.5,-,N/A,,Clear,150,2013-05-16 03:56:00
11:56 PM,66.9,57.0,70,30.02,10.0,SSE,5.8,-,N/A,,Clear,160,2013-05-16 04:56:00